Weather in Torkhovo

Russia / Tula Oblast     54°17′47″N   37°46′17″E
temp.,
°C
wind,
m/s
gust,
m/s
humid.,
%
clouds,
%
prec.,
mm/h
press.,
hPa
HPBL,
m
21 june, mon
mon2100:00+18se2285100 0.0 102125
03:00+18ese2288100 0.0 102115
06:00+19ese238498 0.0 102193
09:00+23ese3470100 0.0 1022413
12:00+26se4458100 0.0 1021966
15:00+28se345221 0.0 10201207
18:00+27se356333 0.0 1020597
21:00+22se34855 0.0 102060
22 june, tue
tue2200:00+19se23895 0.0 102145
03:00+18se22915 0.0 102126
06:00+20se23855 0.0 102298
09:00+25sse35665 0.0 1022457
12:00+28se44532 0.0 10211072
15:00+29se33475 0.0 10211494
18:00+28se34593 0.0 1021560
21:00+23se33770 0.0 102142
23 june, wed
wed2300:00+20se22830 0.0 102122
03:00+19se228590 0.0 102215
06:00+21e23812 0.0 102274
09:00+26e33640 0.0 1022419
12:00+29ese34525 0.0 10221307
15:00+29ese33480 0.0 10211563
18:00+28e34594 0.0 1021656
21:00+23ese227560 0.0 102119
24 june, thu
thu2400:00+21ese22817 0.0 102115
03:00+20e22865 0.0 102118
06:00+22ese12825 0.0 102176
09:00+27se22635 0.0 1021469
12:00+30sse22525 0.0 10211364
15:00+31s12465 0.0 10202007
18:00+30w125861 0.1 10191122
21:00+25nw11741 0.3 101911
25 june, fri
fri2500:00+22w228661 1.9 101921
03:00+20nw118896 2.3 101911
06:00+22sw118080 0.0 101821
09:00+27w116363 0.0 1018397
12:00+30wsw125025 0.0 10181523
15:00+31wnw335099 0.1 10171760
18:00+30wsw23575 0.1 1016963
21:00+20wnw51189100 2.8 1017236